VINASAT-2 (38332 NORAD) Tracking and Keplerian Element Data

This shows tracking and keplerian element data for the satellite.

Feedback or suggestion? Click here.




ElementValue
Catalog38332
NameVINASAT-2
Epoch Orbit4486
Epoch Day354.22076611
Epoch Year2025
RAAN354.3269
Inclination0.0123
Eccentricity0.0002224
Argument of Perigee279.1374
Mean Anonmoly26.9156
Mean Motion1.00272483
Decay Rate-3.05E-06
L11 38332U 12023B 25354.22076611 -.00000305 00000+0 00000+0 0 9998
L22 38332 0.0123 354.3269 0002224 279.1374 26.9156 1.00272483 44860



Live tracking and technical data element details for VINASAT-2 (NORAD 38332). VINASAT-2 can be tracked NOW for your location showing map with azimuth and elevation plus other details from your city location.







IsCatalogInMostPopularTable: catalog: 38332, numindb: 645
Update: records affected: 1



GetName: 38332 VINASAT-2

Hit Count: updated at: Thu, 21 May 2026 12:06:11 GMT